Regional Weather Roundup
Issued by NWS

Home | Current Version | Previous Version | Text Only | Print | Product List | Glossary Off
Versions: 1 2 3 4 5 6 7 8 9 10 11 12 13 14 15 16 17 18 19 20 21 22 23 24 25 26 27 28 29 30 31 32 33 34 35 36 37 38 39 40 41 42 43 44 45 46 47 48 49 50

000
ASUS43 KFSD 210602
RWRSD

WEATHER ROUNDUP FOR SOUTH DAKOTA
NATIONAL WEATHER SERVICE SIOUX FALLS SD
1200 AM CST TUE FEB 21 2017

NOTE: "FAIR" INDICATES FEW OR NO CLOUDS BELOW 12,000 FEET WITH NO
SIGNIFICANT WEATHER AND/OR OBSTRUCTIONS TO VISIBILITY.


SDZ001>005-009-010-012>017-210700-
NORTHWEST AND NORTH CENTRAL SOUTH DAKOTA

CITY           SKY/WX    TMP DP  RH WIND       PRES   REMARKS
BUFFALO          N/A     47  28  47 W8        29.62F
FAITH            N/A     42  29  59 S17       29.71F
MOBRIDGE       PTCLDY    38  30  73 SE9       29.73F
$$

SDZ012>016-024>037-041>051-057-063-072>074-210700-
SOUTHWEST AND SOUTH CENTRAL SOUTH DAKOTA

CITY           SKY/WX    TMP DP  RH WIND       PRES   REMARKS
RAPID CTY ARPT CLEAR     50  31  48 SE13      29.77S
PIERRE         CLEAR     39  29  67 SE13      29.78F
CUSTER         CLOUDY    44  27  51 W12G30    29.87R
ELLSWORTH AFB  PTCLDY    50  30  46 S5        29.76S
PHILIP         CLOUDY    43  28  55 SW7       29.77F
PINE RIDGE     MOCLDY    48  31  51 S10       29.87S
SPEARFISH      FAIR      54  28  37 W23G40    29.76R
WINNER         FAIR      47  28  47 S18       29.85F
$$

SDZ004>011-016>023-039-040-210700-
NORTHEAST SOUTH DAKOTA

CITY           SKY/WX    TMP DP  RH WIND       PRES   REMARKS
ABERDEEN       CLEAR     33  30  88 S7        29.81S WCI  27
WATERTOWN      CLEAR     31  30  96 SE3       29.83F FOG
BROOKINGS      LGT RAIN  32  31  96 SE7       29.86F VSB 3/4 WCI  26
SISSETON         N/A     35  32  88 SE3       29.79F
$$

SDZ017-020-022-023-036>040-048>070-210700-
SOUTHEAST SOUTH DAKOTA

CITY           SKY/WX    TMP DP  RH WIND       PRES   REMARKS
SIOUX FALLS    CLEAR     32  32 100 CALM      29.90S
HURON          CLEAR     36  36 100 S8        29.85S
CHAMBERLAIN    CLEAR     36  31  82 SE3       29.85F
MITCHELL       PTCLDY    36  33  89 S8        29.88F
YANKTON        CLEAR     37  34  87 CALM      29.91S
$$

ABBREVIATIONS USED IN REMARKS
   TC - TEMPERATURE IN CELSIUS
  WCI - WIND CHILL INDEX
   HX - HEAT INDEX
  VSB - VISIBILITY





USA.gov is the U.S. government's official web portal to all federal, state and local government web resources and services.